{"data":{"norad_id":57638,"intl_designator":"2023-122G","name":"STARLINK-30328","alt_names":[],"object_type":"PAYLOAD","status":"ACTIVE","operator":null,"country":"US","launch_date":"2023-08-17","launch_site_code":"AFETR","launch_vehicle":null,"mission":null,"orbit_class":"UNKNOWN","rcs_meters":null,"size_class":null,"mass_kg":null,"dimensions":null,"purposes":["comms"],"wikipedia_slug":null,"has_3d_model":false,"image_url":null,"decayed_at":null,"tle_current":{"epoch":"2026-05-25T00:31:39.814176Z","epoch_age_seconds":80095,"freshness":"FRESH","line1":"1 57638U 23122G   26145.02198859 -.00002053  00000+0 -65150-4 0  9991","line2":"2 57638  43.0052  10.1070 0000996 260.9473  99.1266 15.27563107154021","mean_motion":15.27563107,"eccentricity":9.96e-5,"inclination_deg":43.0052,"raan_deg":10.107,"arg_perigee_deg":260.9473,"mean_anomaly_deg":99.1266,"bstar":-6.515e-5,"rev_number":15402,"period_min":94.267791189854,"perigee_km":482.41630105169,"apogee_km":483.78305939839,"semimajor_km":6861.236680225,"source":"CELESTRAK","updated_at":"2026-05-25T13:38:18.363371Z"}}}